| Date | Time | Temp. (oF) | Dew Point (oF) | Rel. Hum. (%) | Press. (in.) | Wind Dir. | Wind Speed (mph) | Hourly Rainfall (in.) |
|
|---|---|---|---|---|---|---|---|---|---|
| 1 | 01/30 | 00:00 | 29 | 25 | 86 | 30.33 | N | 3 | 0.00 |
| 2 | 01/29 | 23:00 | 29 | 26 | 92 | 30.32 | N | 6 | 0.00 |
| 3 | 01/29 | 22:00 | 28 | 27 | 96 | 30.31 | WNW | 1 | 0.00 |
| 4 | 01/29 | 21:00 | 28 | 27 | 96 | 30.29 | NNW | 3 | 0.00 |
| 5 | 01/29 | 20:00 | 28 | 27 | 97 | 30.26 | NW | 3 | 0.00 |
| 6 | 01/29 | 19:00 | 26 | 24 | 95 | 30.24 | WNW | 3 | 0.00 |
| 7 | 01/29 | 18:00 | 27 | 25 | 95 | 30.20 | WNW | 1 | 0.00 |
| 8 | 01/29 | 17:00 | 28 | 26 | 95 | 30.16 | S | 1 | 0.00 |
| 9 | 01/29 | 16:00 | 28 | 26 | 95 | 30.14 | WNW | 1 | 0.00 |
| 10 | 01/29 | 15:00 | 29 | 27 | 94 | 30.12 | WNW | 4 | 0.00 |
| 11 | 01/29 | 14:00 | 29 | 27 | 94 | 30.10 | NW | 1 | 0.01 |
| 12 | 01/29 | 13:00 | 28 | 26 | 95 | 30.10 | NE | 1 | 0.01 |
| 13 | 01/29 | 12:00 | 27 | 25 | 95 | 30.11 | ENE | 1 | 0.01 |
| 14 | 01/29 | 11:00 | 27 | 26 | 96 | 30.13 | NE | 4 | 0.02 |
| 15 | 01/29 | 10:00 | 25 | 24 | 96 | 30.13 | N | 2 | 0.01 |
| 16 | 01/29 | 09:00 | 25 | 24 | 96 | 30.10 | ENE | 3 | 0.00 |
| 17 | 01/29 | 08:00 | 24 | 22 | 94 | 30.11 | NNE | 2 | 0.00 |
| 18 | 01/29 | 07:00 | 23 | 21 | 93 | 30.10 | S | 1 | 0.00 |
| 19 | 01/29 | 06:00 | 23 | 20 | 91 | 30.10 | NE | 1 | 0.00 |
| 20 | 01/29 | 05:00 | 24 | 19 | 84 | 30.10 | E | 1 | 0.00 |
| 21 | 01/29 | 04:00 | 24 | 17 | 76 | 30.11 | NNE | 3 | 0.00 |
| 22 | 01/29 | 03:00 | 24 | 16 | 72 | 30.12 | E | 2 | 0.00 |
| 23 | 01/29 | 02:00 | 24 | 16 | 73 | 30.14 | ESE | 1 | 0.00 |
| 24 | 01/29 | 01:00 | 24 | 16 | 74 | 30.15 | E | 2 | 0.00 |